Location: Newark
(53.2053°N, 5.8147°E)
Time: 02:14:05
(UTC+00:00)

ISS - Visible Passes

Search period start: 18 October 2019 00:00
Search period end: 28 October 2019 00:00
Orbit: 411 x 421 km, 51.6° (Epoch: 17 October)

Date Brightness Start Highest point End Pass type
(mag) Time Alt. Az. Time Alt. Az. Time Alt. Az.
25 Oct -1.1 05:37:05 10° SSW 05:39:34 19° SSE 05:42:03 10° E visible
26 Oct -0.9 04:49:25 10° S 04:51:12 14° SE 04:52:59 10° ESE visible
27 Oct -2.1 05:35:46 10° SW 05:38:51 33° SSE 05:41:55 10° E visible
